Location: Prairie Dale
(45.6972°N, 104.5033°W)
Time: 15:36:53
(UTC+00:00)

Envisat - Pass Details

Date: 26 January 2022
Orbit: 764 x 765 km, 98.2° (Epoch: 15 May)

Event Time Altitude Azimuth Distance (km) Brightness Sun altitude
Rises 10:59:31 0° 24° (NNE) 3,241 6.6 -35.9°
Reaches altitude 10° 11:02:11 10° 36° (NE) 2,310 5.9 -35.5°
Maximum altitude 11:06:28 27° 94° (E) 1,441 4.9 -34.7°
Drops below altitude 10° 11:10:45 10° 152° (SSE) 2,297 5.6 -34.0°
Sets 11:13:22 0° 164° (SSE) 3,218 6.3 -33.6°
